Simultaneous Nadir Overpasses (SNOs) Predictions

Prediction of SNOs between FY3D and AQUA Satellite Orbit:

Table of predicted SNOs for the next 14.0 days since TLE Epoch: 3/23/2024
Index Date (FY3D) Time (FY3D) Lat,Lon (FY3D) SZA (FY3D ) Date (AQUA) Time (AQUA) Lat,Lon (AQUA) SZA (AQUA ) Distance(km) Time Diff (sec)
1 03/23/2024 09:20:13 79.27, 20.85 78.63 03/23/2024 09:20:37 79.27, 20.82 78.63 0.63 24
2 03/23/2024 10:10:50 -79.01,-169.85 101.76 03/23/2024 10:09:53 -79.02,-169.91 101.74 1.28 57
3 03/25/2024 21:24:05 -79.45, 18.48 102.11 03/25/2024 21:25:17 -79.45, 18.48 102.13 0.17 72
4 03/25/2024 22:14:41 79.15,-171.74 77.44 03/25/2024 22:14:31 79.15,-171.86 77.45 2.78 10
5 03/28/2024 10:18:34 -79.37,-174.41 103.24 03/28/2024 10:19:10 -79.36,-174.35 103.26 1.35 36
6 03/28/2024 11:09:10 79.02, -4.42 76.26 03/28/2024 11:08:24 79.03, -4.51 76.28 1.96 46
7 03/30/2024 23:13:02 -79.23, -6.86 104.44 03/30/2024 23:13:01 -79.23, -6.89 104.44 0.75 1
8 04/02/2024 11:16:53 79.35, -8.74 74.76 04/02/2024 11:17:34 79.35, -8.76 74.75 0.37 41
9 04/02/2024 12:07:31 -79.13, 160.33 105.58 04/02/2024 12:06:51 -79.13, 160.34 105.57 0.26 40



Historial Predications of SNOs between FY3D and AQUA
